QPF
0.00 0.00 0.00 0.00 0.00 0.00 0.00 0.00 0.00 0.00 0.00 0.00 0.00 0.00 0.00 0.00 0.00 0.00 0.00 0.01 0.01 0.01 0.01 0.02 0.03 0.02 0.02 0.03 0.04 0.05 0.05 0.05 0.05 0.03 0.02 0.02 0.02 0.02 0.03 0.03 0.03 0.04 0.03
0.00 0.00 0.00 0.00 0.00 0.00 0.00 0.00 0.00 0.00 0.00 0.00 0.00 0.00 0.00 0.00 0.00 0.00 0.00 0.01 0.01 0.02 0.02 0.03 0.04 0.02 0.03 0.03 0.03 0.03 0.03 0.03 0.04 0.04 0.02 0.02 0.02 0.03 0.02 0.02 0.03 0.04 0.04
0.00 0.00 0.00 0.00 0.00 0.00 0.00 0.00 0.00 0.00 0.00 0.00 0.00 0.00 0.00 0.00 0.00 0.00 0.00 0.00 0.01 0.01 0.02 0.03 0.03 0.03 0.02 0.01 0.02 0.02 0.02 0.02 0.03 0.03 0.03 0.03 0.02 0.03 0.02 0.01 0.02 0.04 0.05
0.00 0.00 0.00 0.00 0.00 0.00 0.00 0.00 0.00 0.00 0.00 0.00 0.00 0.00 0.00 0.00 0.00 0.00 0.00 0.00 0.00 0.00 0.00 0.01 0.01 0.02 0.02 0.02 0.01 0.02 0.02 0.03 0.03 0.03 0.03 0.03 0.03 0.02 0.02 0.02 0.02 0.02 0.03
0.00 0.00 0.00 0.00 0.00 0.00 0.00 0.00 0.00 0.00 0.00 0.00 0.00 0.00 0.00 0.00 0.00 0.00 0.00 0.00 0.00 0.00 0.00 0.00 0.00 0.01 0.01 0.01 0.01 0.02 0.03 0.03 0.04 0.04 0.03 0.02 0.02 0.02 0.02 0.02 0.02 0.02 0.02
0.00 0.00 0.00 0.00 0.00 0.00 0.00 0.00 0.00 0.00 0.00 0.00 0.00 0.00 0.00 0.00 0.00 0.00 0.00 0.00 0.00 0.00 0.00 0.00 0.00 0.01 0.01 0.02 0.01 0.01 0.01 0.01 0.02 0.04 0.06 0.04 0.02 0.02 0.02 0.02 0.02 0.02 0.03
0.00 0.00 0.00 0.00 0.00 0.00 0.00 0.00 0.00 0.00 0.00 0.00 0.00 0.00 0.00 0.00 0.00 0.00 0.00 0.00 0.00 0.00 0.00 0.00 0.00 0.00 0.01 0.01 0.01 0.00 0.00 0.01 0.02 0.02 0.05 0.04 0.02 0.02 0.02 0.02 0.01 0.02 0.02
0.00 0.00 0.00 0.00 0.00 0.00 0.00 0.00 0.00 0.00 0.00 0.00 0.00 0.00 0.00 0.00 0.00 0.00 0.00 0.00 0.00 0.00 0.00 0.00 0.00 0.00 0.00 0.00 0.00 0.00 0.00 0.00 0.01 0.00 0.01 0.02 0.02 0.02 0.03 0.03 0.03 0.02 0.01
0.00 0.00 0.00 0.00 0.00 0.00 0.00 0.00 0.00 0.00 0.00 0.01 0.01 0.00 0.00 0.00 0.00 0.00 0.00 0.00 0.00 0.00 0.00 0.00 0.00 0.00 0.00 0.00 0.00 0.00 0.00 0.00 0.00 0.00 0.00 0.00 0.01 0.02 0.02 0.03 0.03 0.03 0.03
0.00 0.00 0.00 0.00 0.00 0.00 0.01 0.01 0.01 0.01 0.01 0.01 0.01 0.01 0.00 0.00 0.00 0.00 0.00 0.00 0.00 0.00 0.00 0.00 0.00 0.00 0.00 0.00 0.00 0.00 0.00 0.00 0.00 0.00 0.00 0.00 0.00 0.00 0.00 0.01 0.02 0.03 0.02
0.00 0.00 0.00 0.00 0.00 0.00 0.00 0.01 0.01 0.01 0.01 0.01 0.01 0.01 0.00 0.00 0.00 0.00 0.00 0.00 0.00 0.00 0.00 0.00 0.00 0.00 0.00 0.00 0.00 0.00 0.00 0.00 0.00 0.00 0.00 0.00 0.00 0.00 0.00 0.00 0.01 0.01 0.01
0.00 0.00 0.00 0.00 0.00 0.00 0.01 0.01 0.01 0.01 0.01 0.01 0.01 0.01 0.01 0.01 0.00 0.00 0.00 0.00 0.00 0.00 0.00 0.00 0.00 0.00 0.00 0.00 0.00 0.00 0.00 0.00 0.00 0.00 0.00 0.00 0.00 0.00 0.00 0.00 0.00 0.01 0.01
0.00 0.00 0.00 0.00 0.00 0.00 0.01 0.01 0.01 0.01 0.02 0.02 0.02 0.02 0.01 0.01 0.01 0.00 0.00 0.00 0.00 0.00 0.00 0.00 0.00 0.00 0.00 0.00 0.00 0.00 0.00 0.00 0.00 0.00 0.00 0.00 0.00 0.00 0.00 0.00 0.00 0.00 0.00
0.00 0.00 0.00 0.00 0.00 0.01 0.01 0.01 0.01 0.01 0.02 0.02 0.02 0.02 0.02 0.01 0.01 0.01 0.01 0.00 0.00 0.00 0.00 0.00 0.00 0.00 0.00 0.00 0.00 0.00 0.00 0.00 0.00 0.00 0.00 0.00 0.00 0.00 0.00 0.00 0.00 0.00 0.00
0.00 0.00 0.00 0.00 0.00 0.01 0.01 0.01 0.02 0.02 0.02 0.02 0.03 0.03 0.02 0.02 0.01 0.01 0.01 0.01 0.01 0.00 0.00 0.00 0.00 0.00 0.00 0.00 0.00 0.00 0.00 0.00 0.00 0.00 0.00 0.00 0.00 0.00 0.00 0.00 0.00 0.00 0.00
0.00 0.00 0.00 0.00 0.00 0.01 0.01 0.02 0.02 0.02 0.02 0.02 0.02 0.02 0.02 0.02 0.02 0.01 0.01 0.01 0.01 0.01 0.00 0.00 0.00 0.00 0.00 0.00 0.00 0.00 0.00 0.00 0.00 0.00 0.00 0.00 0.00 0.00 0.00 0.00 0.00 0.00 0.00
0.00 0.00 0.00 0.00 0.00 0.01 0.01 0.02 0.02 0.02 0.02 0.02 0.02 0.02 0.03 0.03 0.03 0.02 0.02 0.01 0.01 0.01 0.00 0.00 0.00 0.00 0.00 0.00 0.00 0.00 0.00 0.00 0.00 0.00 0.00 0.00 0.00 0.00 0.01 0.01 0.00 0.00 0.00
0.00 0.00 0.00 0.00 0.00 0.01 0.01 0.01 0.02 0.03 0.02 0.02 0.03 0.03 0.03 0.03 0.03 0.03 0.02 0.02 0.01 0.01 0.01 0.01 0.01 0.01 0.01 0.01 0.01 0.01 0.00 0.00 0.00 0.00 0.00 0.00 0.00 0.00 0.00 0.00 0.00 0.00 0.00
0.00 0.00 0.00 0.00 0.00 0.00 0.01 0.01 0.02 0.02 0.03 0.03 0.03 0.04 0.04 0.04 0.04 0.03 0.02 0.02 0.01 0.01 0.01 0.01 0.01 0.01 0.01 0.01 0.01 0.01 0.01 0.01 0.01 0.00 0.00 0.00 0.00 0.00 0.01 0.00 0.00 0.00 0.00
0.00 0.00 0.00 0.00 0.00 0.00 0.00 0.01 0.01 0.02 0.03 0.03 0.04 0.05 0.06 0.05 0.04 0.03 0.03 0.02 0.02 0.02 0.02 0.02 0.02 0.02 0.02 0.01 0.01 0.01 0.01 0.01 0.01 0.01 0.00 0.00 0.00 0.00 0.00 0.00 0.00 0.00 0.00
0.00 0.00 0.00 0.00 0.00 0.00 0.00 0.00 0.01 0.01 0.03 0.04 0.04 0.05 0.08 0.07 0.06 0.04 0.03 0.03 0.03 0.02 0.02 0.03 0.03 0.03 0.03 0.02 0.02 0.01 0.01 0.01 0.00 0.00 0.00 0.00 0.00 0.00 0.00 0.00 0.00 0.00 0.00
0.00 0.00 0.00 0.00 0.00 0.00 0.00 0.00 0.01 0.01 0.02 0.03 0.04 0.06 0.07 0.08 0.07 0.06 0.05 0.04 0.04 0.04 0.04 0.04 0.05 0.04 0.04 0.03 0.02 0.02 0.01 0.01 0.01 0.00 0.00 0.00 0.00 0.00 0.00 0.00 0.00 0.00 0.00
0.00 0.00 0.00 0.00 0.00 0.00 0.00 0.00 0.01 0.01 0.02 0.02 0.04 0.06 0.07 0.07 0.08 0.07 0.06 0.05 0.05 0.05 0.05 0.05 0.05 0.05 0.04 0.04 0.03 0.02 0.02 0.01 0.01 0.01 0.01 0.00 0.00 0.00 0.00 0.00 0.00 0.00 0.00
0.00 0.00 0.00 0.00 0.00 0.00 0.00 0.00 0.01 0.01 0.02 0.02 0.04 0.05 0.06 0.06 0.07 0.07 0.07 0.06 0.06 0.06 0.05 0.05 0.05 0.05 0.05 0.05 0.04 0.04 0.03 0.02 0.02 0.02 0.01 0.01 0.01 0.00 0.00 0.00 0.00 0.00 0.00
0.00 0.00 0.00 0.00 0.00 0.00 0.00 0.00 0.00 0.01 0.02 0.02 0.03 0.05 0.06 0.07 0.07 0.08 0.08 0.08 0.07 0.07 0.06 0.05 0.05 0.04 0.04 0.04 0.04 0.04 0.04 0.04 0.04 0.03 0.02 0.02 0.01 0.01 0.00 0.00 0.00 0.00 0.00
0.00 0.00 0.00 0.00 0.00 0.00 0.01 0.00 0.01 0.01 0.01 0.02 0.03 0.04 0.05 0.07 0.09 0.09 0.09 0.09 0.09 0.09 0.08 0.07 0.06 0.05 0.05 0.05 0.04 0.05 0.05 0.05 0.05 0.05 0.04 0.03 0.02 0.01 0.01 0.00 0.00 0.00 0.00
MSLP
1012.37 1012.77 1013.16 1013.51 1013.79 1014.00 1014.13 1014.21 1014.25 1014.28 1014.32 1014.38 1014.47 1014.58 1014.70 1014.82 1014.92 1015.00 1015.05 1015.07 1015.07 1015.06 1015.04 1015.04 1015.03 1015.03 1015.04 1015.05 1015.05 1015.06 1015.06 1015.07 1015.08 1015.11 1015.14 1015.19 1015.23 1015.28 1015.32 1015.35 1015.36 1015.37 1015.37
1012.08 1012.42 1012.77 1013.10 1013.37 1013.59 1013.74 1013.84 1013.90 1013.96 1014.03 1014.12 1014.24 1014.37 1014.52 1014.66 1014.79 1014.89 1014.96 1015.01 1015.03 1015.03 1015.02 1015.02 1015.02 1015.02 1015.02 1015.04 1015.05 1015.07 1015.09 1015.11 1015.15 1015.19 1015.23 1015.27 1015.31 1015.34 1015.36 1015.36 1015.34 1015.32 1015.29
1011.89 1012.18 1012.48 1012.77 1013.02 1013.22 1013.37 1013.48 1013.58 1013.66 1013.76 1013.88 1014.03 1014.19 1014.36 1014.52 1014.67 1014.79 1014.87 1014.93 1014.96 1014.97 1014.97 1014.97 1014.98 1014.99 1015.01 1015.03 1015.06 1015.09 1015.13 1015.16 1015.20 1015.24 1015.28 1015.31 1015.34 1015.34 1015.33 1015.30 1015.26 1015.21 1015.15
1011.86 1012.07 1012.31 1012.54 1012.75 1012.92 1013.05 1013.16 1013.26 1013.37 1013.49 1013.63 1013.80 1013.99 1014.17 1014.35 1014.51 1014.63 1014.72 1014.78 1014.82 1014.83 1014.84 1014.86 1014.88 1014.91 1014.94 1014.99 1015.04 1015.09 1015.14 1015.18 1015.22 1015.25 1015.28 1015.30 1015.30 1015.29 1015.26 1015.21 1015.14 1015.07 1014.99
1011.96 1012.11 1012.28 1012.44 1012.58 1012.69 1012.79 1012.87 1012.95 1013.05 1013.18 1013.33 1013.51 1013.71 1013.91 1014.09 1014.25 1014.37 1014.46 1014.52 1014.55 1014.58 1014.60 1014.63 1014.67 1014.72 1014.79 1014.87 1014.94 1015.02 1015.08 1015.13 1015.17 1015.20 1015.22 1015.22 1015.21 1015.18 1015.14 1015.08 1015.01 1014.93 1014.84
1012.20 1012.28 1012.37 1012.45 1012.51 1012.54 1012.57 1012.59 1012.63 1012.70 1012.81 1012.95 1013.12 1013.31 1013.51 1013.69 1013.84 1013.95 1014.04 1014.09 1014.12 1014.15 1014.19 1014.24 1014.31 1014.40 1014.51 1014.62 1014.73 1014.83 1014.91 1014.98 1015.02 1015.05 1015.06 1015.06 1015.05 1015.03 1014.99 1014.95 1014.88 1014.81 1014.73
1012.53 1012.55 1012.56 1012.55 1012.51 1012.45 1012.39 1012.33 1012.30 1012.32 1012.37 1012.48 1012.62 1012.79 1012.96 1013.12 1013.25 1013.36 1013.43 1013.48 1013.51 1013.55 1013.61 1013.69 1013.79 1013.92 1014.07 1014.22 1014.37 1014.50 1014.60 1014.69 1014.75 1014.78 1014.81 1014.82 1014.83 1014.83 1014.82 1014.80 1014.77 1014.72 1014.66
1012.91 1012.88 1012.81 1012.71 1012.57 1012.41 1012.25 1012.10 1011.99 1011.92 1011.91 1011.96 1012.05 1012.17 1012.31 1012.43 1012.53 1012.61 1012.67 1012.71 1012.74 1012.79 1012.87 1012.97 1013.11 1013.28 1013.47 1013.66 1013.84 1014.00 1014.14 1014.25 1014.33 1014.40 1014.44 1014.49 1014.53 1014.57 1014.61 1014.64 1014.66 1014.66 1014.63
1013.31 1013.22 1013.09 1012.90 1012.68 1012.43 1012.17 1011.93 1011.72 1011.58 1011.49 1011.46 1011.49 1011.55 1011.63 1011.70 1011.76 1011.80 1011.83 1011.85 1011.88 1011.93 1012.02 1012.15 1012.31 1012.51 1012.73 1012.96 1013.17 1013.37 1013.53 1013.67 1013.78 1013.88 1013.96 1014.05 1014.14 1014.24 1014.34 1014.43 1014.52 1014.57 1014.60
1013.68 1013.55 1013.37 1013.12 1012.83 1012.51 1012.17 1011.85 1011.57 1011.35 1011.18 1011.08 1011.03 1011.02 1011.02 1011.03 1011.04 1011.03 1011.02 1011.01 1011.02 1011.06 1011.14 1011.27 1011.45 1011.66 1011.90 1012.15 1012.38 1012.60 1012.80 1012.96 1013.11 1013.24 1013.37 1013.50 1013.65 1013.81 1013.98 1014.15 1014.31 1014.43 1014.52
1014.01 1013.86 1013.64 1013.36 1013.03 1012.66 1012.28 1011.91 1011.57 1011.29 1011.06 1010.88 1010.76 1010.67 1010.59 1010.53 1010.46 1010.38 1010.31 1010.25 1010.22 1010.23 1010.29 1010.40 1010.56 1010.77 1011.01 1011.26 1011.50 1011.73 1011.95 1012.13 1012.31 1012.48 1012.65 1012.84 1013.05 1013.28 1013.52 1013.76 1013.99 1014.18 1014.34
1014.28 1014.12 1013.89 1013.60 1013.26 1012.88 1012.49 1012.10 1011.73 1011.41 1011.13 1010.90 1010.71 1010.54 1010.38 1010.23 1010.07 1009.92 1009.77 1009.63 1009.54 1009.49 1009.49 1009.56 1009.69 1009.86 1010.08 1010.31 1010.54 1010.77 1010.99 1011.20 1011.40 1011.60 1011.82 1012.06 1012.32 1012.61 1012.92 1013.23 1013.53 1013.80 1014.02
1014.47 1014.31 1014.09 1013.82 1013.50 1013.14 1012.76 1012.38 1012.02 1011.69 1011.38 1011.11 1010.85 1010.61 1010.37 1010.12 1009.87 1009.62 1009.38 1009.15 1008.97 1008.84 1008.77 1008.77 1008.83 1008.95 1009.11 1009.30 1009.51 1009.73 1009.94 1010.16 1010.38 1010.62 1010.87 1011.16 1011.48 1011.82 1012.19 1012.57 1012.93 1013.26 1013.55
1014.56 1014.42 1014.23 1013.98 1013.70 1013.38 1013.04 1012.70 1012.36 1012.03 1011.72 1011.41 1011.11 1010.80 1010.48 1010.15 1009.80 1009.44 1009.09 1008.77 1008.48 1008.25 1008.08 1007.99 1007.97 1008.01 1008.11 1008.25 1008.42 1008.61 1008.82 1009.04 1009.27 1009.54 1009.83 1010.16 1010.52 1010.92 1011.34 1011.77 1012.20 1012.59 1012.94
1014.54 1014.42 1014.25 1014.05 1013.81 1013.54 1013.25 1012.95 1012.64 1012.33 1012.02 1011.70 1011.35 1010.99 1010.60 1010.18 1009.74 1009.29 1008.84 1008.40 1008.01 1007.67 1007.40 1007.21 1007.09 1007.05 1007.07 1007.15 1007.27 1007.44 1007.63 1007.85 1008.10 1008.39 1008.72 1009.09 1009.50 1009.95 1010.42 1010.90 1011.37 1011.82 1012.24
1014.40 1014.29 1014.15 1013.97 1013.77 1013.54 1013.29 1013.03 1012.76 1012.47 1012.16 1011.82 1011.45 1011.05 1010.60 1010.12 1009.60 1009.06 1008.52 1008.00 1007.50 1007.07 1006.70 1006.40 1006.19 1006.07 1006.01 1006.03 1006.11 1006.24 1006.42 1006.65 1006.91 1007.23 1007.59 1008.00 1008.45 1008.94 1009.46 1009.99 1010.51 1011.02 1011.49
1014.14 1014.04 1013.90 1013.74 1013.56 1013.36 1013.13 1012.90 1012.64 1012.36 1012.06 1011.71 1011.32 1010.89 1010.41 1009.87 1009.30 1008.71 1008.10 1007.51 1006.94 1006.42 1005.97 1005.60 1005.31 1005.10 1004.98 1004.94 1004.98 1005.08 1005.25 1005.48 1005.76 1006.10 1006.49 1006.94 1007.43 1007.96 1008.52 1009.09 1009.66 1010.21 1010.74
1013.76 1013.65 1013.52 1013.36 1013.17 1012.97 1012.76 1012.53 1012.27 1012.00 1011.69 1011.34 1010.94 1010.49 1009.99 1009.44 1008.84 1008.22 1007.58 1006.94 1006.33 1005.77 1005.26 1004.82 1004.47 1004.21 1004.03 1003.94 1003.94 1004.02 1004.17 1004.39 1004.68 1005.04 1005.46 1005.94 1006.46 1007.03 1007.62 1008.23 1008.84 1009.44 1010.02
1013.29 1013.17 1013.02 1012.84 1012.64 1012.43 1012.20 1011.95 1011.69 1011.40 1011.08 1010.73 1010.33 1009.89 1009.39 1008.84 1008.25 1007.63 1006.99 1006.35 1005.73 1005.14 1004.60 1004.13 1003.74 1003.43 1003.21 1003.08 1003.04 1003.09 1003.22 1003.44 1003.73 1004.09 1004.53 1005.02 1005.57 1006.16 1006.78 1007.42 1008.07 1008.71 1009.33
1012.74 1012.61 1012.44 1012.24 1012.01 1011.77 1011.51 1011.24 1010.96 1010.65 1010.33 1009.98 1009.59 1009.16 1008.68 1008.16 1007.60 1007.01 1006.40 1005.78 1005.17 1004.59 1004.05 1003.56 1003.14 1002.80 1002.55 1002.38 1002.31 1002.32 1002.43 1002.62 1002.90 1003.26 1003.69 1004.19 1004.75 1005.35 1006.00 1006.66 1007.34 1008.01 1008.67
1012.14 1012.00 1011.81 1011.58 1011.33 1011.05 1010.76 1010.47 1010.16 1009.85 1009.52 1009.17 1008.80 1008.39 1007.95 1007.47 1006.96 1006.41 1005.85 1005.27 1004.69 1004.13 1003.59 1003.11 1002.68 1002.31 1002.03 1001.83 1001.71 1001.69 1001.76 1001.93 1002.18 1002.52 1002.93 1003.42 1003.98 1004.59 1005.24 1005.92 1006.62 1007.32 1008.01
1011.51 1011.36 1011.16 1010.91 1010.63 1010.33 1010.01 1009.69 1009.37 1009.05 1008.72 1008.38 1008.03 1007.65 1007.25 1006.82 1006.35 1005.86 1005.34 1004.80 1004.26 1003.73 1003.21 1002.72 1002.29 1001.90 1001.59 1001.36 1001.21 1001.14 1001.17 1001.30 1001.52 1001.82 1002.22 1002.69 1003.24 1003.85 1004.50 1005.19 1005.90 1006.62 1007.34
1010.83 1010.69 1010.48 1010.23 1009.94 1009.62 1009.29 1008.96 1008.63 1008.30 1007.98 1007.65 1007.32 1006.97 1006.60 1006.20 1005.78 1005.32 1004.84 1004.34 1003.82 1003.31 1002.80 1002.32 1001.88 1001.48 1001.14 1000.88 1000.69 1000.60 1000.59 1000.68 1000.86 1001.14 1001.51 1001.96 1002.50 1003.10 1003.76 1004.46 1005.19 1005.93 1006.66
1010.12 1009.99 1009.78 1009.53 1009.23 1008.92 1008.59 1008.26 1007.93 1007.61 1007.29 1006.97 1006.65 1006.31 1005.96 1005.58 1005.17 1004.73 1004.27 1003.78 1003.27 1002.77 1002.26 1001.78 1001.33 1000.92 1000.57 1000.29 1000.09 999.96 999.94 1000.00 1000.16 1000.42 1000.78 1001.23 1001.76 1002.37 1003.03 1003.75 1004.50 1005.26 1006.03
1009.37 1009.24 1009.05 1008.80 1008.51 1008.21 1007.89 1007.56 1007.24 1006.93 1006.61 1006.30 1005.97 1005.63 1005.27 1004.88 1004.46 1004.01 1003.53 1003.03 1002.52 1002.00 1001.50 1001.01 1000.56 1000.15 999.80 999.52 999.32 999.20 999.18 999.25 999.41 999.68 1000.05 1000.51 1001.05 1001.67 1002.36 1003.10 1003.88 1004.67 1005.47
1008.58 1008.45 1008.27 1008.03 1007.76 1007.47 1007.16 1006.85 1006.54 1006.23 1005.91 1005.59 1005.24 1004.88 1004.48 1004.05 1003.59 1003.10 1002.58 1002.05 1001.51 1000.97 1000.45 999.97 999.53 999.14 998.81 998.56 998.39 998.31 998.33 998.43 998.64 998.94 999.34 999.84 1000.42 1001.07 1001.80 1002.57 1003.38 1004.21 1005.04
Thickness
5728 5726 5723 5720 5717 5714 5711 5708 5705 5704 5701 5698 5696 5693 5691 5689 5686 5683 5681 5679 5678 5678 5678 5677 5677 5677 5678 5679 5680 5681 5682 5684 5683 5686 5689 5692 5694 5697 5699 5701 5704 5707 5708
5726 5725 5722 5720 5716 5714 5711 5708 5706 5704 5702 5700 5697 5694 5692 5689 5687 5685 5681 5680 5679 5678 5678 5677 5677 5677 5677 5679 5679 5680 5681 5683 5683 5682 5685 5688 5690 5693 5695 5697 5700 5703 5704
5724 5722 5720 5718 5716 5713 5711 5708 5706 5704 5702 5700 5698 5694 5692 5690 5688 5686 5684 5682 5681 5680 5679 5677 5677 5677 5676 5678 5677 5679 5680 5681 5682 5682 5683 5684 5686 5688 5689 5691 5695 5696 5699
5721 5719 5717 5715 5714 5712 5711 5708 5705 5704 5701 5699 5698 5695 5693 5691 5689 5687 5686 5683 5682 5681 5680 5678 5678 5677 5677 5677 5677 5677 5678 5678 5679 5679 5680 5680 5681 5683 5685 5686 5688 5690 5692
5716 5714 5712 5712 5711 5709 5707 5705 5703 5702 5700 5698 5696 5695 5694 5691 5689 5688 5686 5683 5682 5681 5680 5679 5678 5676 5674 5674 5675 5676 5675 5676 5676 5676 5677 5677 5678 5678 5680 5682 5682 5684 5686
5710 5708 5707 5706 5706 5704 5703 5702 5701 5699 5698 5697 5695 5693 5691 5690 5687 5682 5681 5683 5682 5681 5680 5679 5678 5675 5672 5670 5669 5670 5671 5673 5675 5674 5674 5674 5676 5677 5677 5677 5678 5679 5680
5704 5702 5701 5699 5698 5698 5698 5697 5696 5695 5695 5694 5692 5691 5689 5689 5684 5680 5677 5678 5680 5681 5680 5679 5678 5676 5672 5673 5669 5666 5667 5667 5668 5672 5673 5673 5673 5674 5673 5673 5674 5675 5676
5697 5694 5693 5691 5691 5691 5690 5690 5691 5692 5692 5690 5690 5689 5687 5687 5683 5679 5676 5675 5678 5678 5678 5678 5677 5676 5673 5672 5671 5669 5669 5668 5667 5667 5670 5671 5671 5670 5670 5671 5671 5670 5670
5687 5685 5685 5685 5683 5683 5683 5684 5685 5686 5686 5687 5686 5685 5684 5685 5681 5677 5673 5675 5676 5677 5677 5677 5676 5675 5671 5667 5667 5667 5666 5666 5663 5662 5662 5663 5662 5662 5663 5664 5664 5663 5664
5676 5675 5675 5675 5675 5674 5675 5676 5677 5678 5678 5680 5681 5681 5682 5682 5680 5675 5670 5673 5674 5675 5675 5675 5670 5670 5668 5663 5664 5665 5663 5664 5663 5660 5658 5657 5658 5658 5656 5659 5660 5660 5661
5666 5665 5665 5665 5664 5664 5664 5665 5666 5667 5668 5671 5674 5676 5677 5677 5676 5672 5668 5670 5672 5672 5672 5671 5672 5666 5662 5660 5660 5663 5662 5661 5661 5660 5659 5658 5657 5657 5656 5655 5656 5656 5656
5657 5655 5654 5654 5653 5653 5651 5651 5653 5654 5656 5658 5662 5666 5669 5671 5670 5668 5665 5663 5665 5667 5668 5669 5669 5663 5659 5656 5655 5656 5654 5652 5656 5656 5655 5655 5654 5654 5653 5652 5651 5650 5650
5647 5645 5643 5642 5640 5638 5637 5638 5639 5639 5641 5644 5648 5652 5657 5660 5662 5660 5658 5657 5656 5657 5663 5663 5661 5657 5654 5651 5650 5649 5647 5648 5650 5651 5652 5652 5652 5650 5648 5646 5644 5643 5642
5636 5634 5632 5630 5627 5625 5622 5622 5622 5623 5624 5627 5632 5636 5641 5646 5650 5651 5651 5650 5648 5648 5651 5652 5649 5648 5646 5648 5647 5644 5645 5648 5648 5648 5648 5648 5647 5644 5642 5641 5638 5636 5635
5623 5621 5619 5616 5613 5611 5610 5607 5606 5606 5605 5606 5612 5617 5623 5629 5635 5634 5635 5640 5643 5644 5644 5644 5644 5644 5643 5644 5645 5645 5643 5643 5642 5643 5643 5642 5640 5639 5637 5636 5635 5634 5632
5611 5608 5605 5602 5599 5597 5595 5595 5594 5591 5591 5591 5593 5596 5605 5610 5615 5618 5621 5625 5627 5629 5629 5636 5639 5640 5641 5642 5641 5641 5640 5640 5639 5638 5637 5637 5635 5633 5632 5630 5629 5629 5628
5597 5594 5591 5588 5585 5583 5582 5581 5582 5583 5580 5580 5581 5583 5587 5592 5597 5603 5607 5611 5614 5615 5619 5628 5632 5635 5636 5637 5637 5637 5636 5636 5635 5633 5633 5632 5630 5629 5627 5625 5623 5623 5622
5584 5580 5575 5573 5571 5569 5568 5566 5566 5567 5569 5571 5572 5572 5574 5577 5582 5587 5592 5595 5603 5607 5613 5619 5624 5627 5629 5631 5631 5631 5631 5630 5629 5628 5627 5626 5625 5623 5622 5620 5619 5617 5615
5571 5567 5563 5560 5557 5555 5554 5552 5551 5551 5552 5555 5558 5561 5562 5564 5568 5574 5578 5584 5593 5599 5603 5609 5614 5618 5620 5623 5624 5624 5624 5624 5623 5622 5622 5620 5619 5618 5616 5615 5613 5608 5607
5558 5552 5546 5544 5543 5542 5540 5538 5537 5537 5538 5539 5542 5545 5547 5549 5555 5562 5566 5572 5579 5586 5591 5597 5602 5606 5609 5612 5614 5614 5615 5616 5616 5616 5616 5614 5613 5612 5611 5608 5607 5603 5601
5546 5542 5535 5532 5531 5529 5527 5525 5523 5523 5524 5525 5526 5528 5526 5530 5538 5545 5551 5557 5564 5571 5577 5583 5588 5593 5596 5599 5602 5604 5606 5608 5609 5609 5609 5608 5607 5605 5604 5602 5600 5597 5595
5533 5529 5525 5522 5519 5516 5513 5511 5510 5509 5510 5510 5512 5514 5514 5516 5522 5528 5534 5541 5548 5555 5562 5568 5575 5580 5584 5587 5590 5593 5596 5599 5600 5601 5601 5600 5599 5598 5596 5594 5592 5589 5586
5520 5516 5513 5510 5506 5503 5500 5500 5498 5497 5497 5498 5499 5501 5503 5505 5507 5513 5518 5525 5532 5539 5546 5553 5560 5566 5571 5575 5579 5583 5588 5591 5593 5593 5592 5592 5591 5590 5589 5587 5585 5582 5579
5508 5504 5501 5498 5495 5492 5490 5489 5487 5486 5486 5486 5487 5488 5490 5491 5494 5499 5504 5511 5518 5524 5532 5539 5547 5554 5559 5564 5569 5574 5578 5581 5582 5583 5583 5584 5583 5582 5580 5579 5576 5574 5571
5497 5493 5490 5487 5484 5481 5479 5478 5476 5475 5475 5475 5475 5476 5477 5479 5483 5487 5492 5498 5505 5512 5520 5527 5534 5541 5548 5553 5559 5564 5567 5569 5571 5573 5573 5573 5574 5573 5572 5570 5568 5564 5562
5486 5483 5479 5476 5473 5471 5469 5467 5467 5466 5465 5465 5465 5466 5467 5469 5473 5477 5481 5487 5493 5501 5509 5516 5523 5530 5537 5543 5548 5552 5554 5556 5558 5560 5562 5563 5564 5563 5562 5560 5558 5555 5552